Retour au catalogue

CZ-6A DEB

ActifPO
NORAD 61084·DEBRIS·🇨🇳 China

Lancé Aug 6, 2024 depuis Taiyuan Satellite Launch Center

Loading…

Prochains Passages (prochaines 24 heures)

TLE

FraisSource: Space-Track

Époque: Sep 14, 2026, 10:55 UTC

1 61084U 24140NA  26257.45520614  .00001819  00000-0  90840-3 0  9992
2 61084  88.9874 264.8602 0085632 297.7050  61.5469 14.14590749105761

Suivez CZ-6A DEB en temps réel avec AllMySat

Download on the App Store